User: anonymous
Location: Mount Kobau Star Party
(49.1167°N, 119.7333°W)
Time: 03:26:47
(UTC-07:00)
Language:

TSX-5 - Orbit

View from above orbital plane
View from above orbital plane
View from above satellite
View from above satellite

Ground track
Ground track

The orbit data is extracted from the following two-line orbital elements,

1 26374U 00030A   14112.82988716  .00021345  00000-0  19483-2 0  2639
2 26374 068.9346 265.7805 0703029 133.1714 339.8815 13.91547443694933
Epoch (UTC): 22 April 2014 19:55:02
Eccentricity: 0.0703029
inclination: 68.9346°
perigee height: 410 km
apogee height: 1436 km
right ascension of ascending node: 265.7805°
argument of perigee: 133.1714°
revolutions per day: 13.91547443
mean anomaly at epoch: 339.8815°
orbit number at epoch: 69493

The dashed part of the orbit path shows where the satellite is in the earth's shadow,  

DLR